Regional Weather Roundup
Issued by NWS

Home | Current Version | Previous Version | Graphics & Text | Print | Product List | Glossary On
Versions: 1 2 3 4 5 6 7 8 9 10 11 12 13 14 15 16 17 18 19 20 21 22 23 24 25 26 27 28 29 30 31 32 33 34 35 36 37 38 39 40 41 42 43 44 45 46 47 48 49 50
000
ASUS43 KLMK 251410
RWRKY
KENTUCKY REGIONAL WEATHER ROUNDUP
NATIONAL WEATHER SERVICE LOUISVILLE KY
1000 AM EDT SAT OCT 25 2014

NOTE "FAIR" INDICATES FEW OR NO CLOUDS BELOW 12,000 FEET
WITH NO SIGNIFICANT WEATHER AND/OR OBSTRUCTIONS TO VISIBILITY.

KYZ001>023-026-027-061>063-070>075-251500-
WESTERN AND SOUTH CENTRAL KENTUCKY

CITY           SKY/WX    TMP DP  RH WIND       PRES   REMARKS
PADUCAH        SUNNY     61  56  83 SW9       30.05R
HENDERSON      CLOUDY   N/A N/A N/A SW6       30.03S
OWENSBORO      PTSUNNY   60  55  83 SW6       30.04R
HOPKINSVILLE   NOT AVBL
BOWLING GREEN  CLOUDY    56  50  80 SW6       30.07S
GLASGOW        PTSUNNY   52  50  92 CALM      30.08S
$$

KYZ024-025-028>034-038-045-046-053-251500-
NORTH CENTRAL KENTUCKY

CITY           SKY/WX    TMP DP  RH WIND       PRES   REMARKS
LOUISVILLE/SDF CLOUDY    58  52  80 S5        30.03R
LOUISVILLE/LOU CLOUDY    56  51  84 S3        30.04R
FORT KNOX      NOT AVBL
$$

KYZ035>037-039>044-047>052-055>060-089>105-251500-
NORTHEAST KENTUCKY

CITY           SKY/WX    TMP DP  RH WIND       PRES   REMARKS
LEXINGTON      CLOUDY    55  49  80 S8        30.05S
COVINGTON      CLOUDY    55  49  80 SW7       30.00R
FRANKFORT      CLOUDY    54  50  86 SW3       30.03S
$$

KYZ054-064>069-076>088-106>120-251500-
SOUTHEAST KENTUCKY

CITY           SKY/WX    TMP DP  RH WIND       PRES   REMARKS
JACKSON        SUNNY     49  42  77 VRB3      30.07S
LONDON         SUNNY     48  43  82 S3        30.09F
SOMERSET       MOSUNNY   46  46 100 CALM      30.10S
MIDDLESBORO    FOG       40  40 100 CALM      30.14S VSB 1/2
MONTICELLO     SUNNY     55  49  80 W5        30.11S HAZE
$$




USA.gov is the U.S. government's official web portal to all federal, state and local government web resources and services.